Weather History for Kremmling, CO

Change the Weather History Date:

Friday, December 9, 2011

  Actual Average (KEGE) Record (KEGE)
Temperature  
Mean Temperature 19 °F -  
Max Temperature 33 °F 36 °F 53 °F (1976)
Min Temperature 5 °F 5 °F -31 °F (1951)
Degree Days  
Heating Degree Days 46    
Moisture  
Dew Point 6 °F    
Average Humidity 64    
Maximum Humidity 79    
Minimum Humidity 35    
Precipitation  
Precipitation 0.00 in - - ()
Sea Level Pressure  
Sea Level Pressure 30.26 in    
Wind  
Wind Speed 0 mph (NNE)    
Max Wind Speed 5 mph    
Max Gust Speed -    
Visibility 10 miles    
Events      
Averages and records for this station are not official NWS values.
T = Trace of Precipitation, MM = Missing Value Source: NWS Daily Summary

Daily Weather History Graph

Daily Weather History Graph

Search for Another Location

Airport:

Trip Planner

Search our weather history database for the weather conditions in past years. The results will help you decide how hot, cold, wet, or windy it might be!

Date:

Astronomy

Dec. 09, 2011 Rise Set
Actual Time 7:15 AM MST 4:39 PM MST
Civil Twilight 6:45 AM MST 5:10 PM MST
Nautical Twilight 6:11 AM MST 5:44 PM MST
Astronomical Twilight 5:38 AM MST 6:17 PM MST
Moon 4:05 PM MST (12/9) 6:25 AM MST (12/9)
Length of Visible Light 10h 25m
Length of Day
9h 24m
Waxing Gibbous, 99% of the Moon is Illuminated
Dec 9
Waxing Gibbous
Dec 10
Full
Dec 17
Last Quarter
Dec 24
New
Dec 31
First Quarter

Hourly Weather History & Observations

Time (MST) Temp. Windchill Dew Point Humidity Pressure Visibility Wind Dir Wind Speed Gust Speed Precip Events Conditions
12:03 AM 5.0 °F - -0.4 °F 78% 30.21 in 5.0 mi Calm Calm - N/A   Haze
12:24 AM 8.6 °F - 3.2 °F 79% 30.21 in 7.0 mi Calm Calm - N/A   Overcast
12:44 AM 8.6 °F - 3.2 °F 79% 30.22 in 10.0 mi Calm Calm - N/A   Mostly Cloudy
1:04 AM 10.4 °F 4.0 °F 5.0 °F 79% 30.20 in 10.0 mi East 3.5 mph - N/A   Overcast
1:24 AM 10.4 °F - 5.0 °F 79% 30.21 in 10.0 mi Calm Calm - N/A   Overcast
1:44 AM 10.4 °F - 5.0 °F 79% 30.21 in 10.0 mi Calm Calm - N/A   Overcast
2:04 AM 10.4 °F - 5.0 °F 79% 30.20 in 10.0 mi Calm Calm - N/A   Overcast
2:24 AM 10.4 °F 2.2 °F 5.0 °F 79% 30.21 in 10.0 mi East 4.6 mph - N/A   Overcast
2:44 AM 10.4 °F - 5.0 °F 79% 30.22 in 10.0 mi Calm Calm - N/A   Overcast
3:04 AM 10.4 °F - 5.0 °F 79% 30.22 in 10.0 mi Calm Calm - N/A   Overcast
3:24 AM 10.4 °F - 5.0 °F 79% 30.22 in 10.0 mi Calm Calm - N/A   Overcast
3:44 AM 10.4 °F - 5.0 °F 79% 30.22 in 10.0 mi Calm Calm - N/A   Overcast
4:04 AM 10.4 °F - 5.0 °F 79% 30.22 in 10.0 mi Calm Calm - N/A   Overcast
4:24 AM 10.4 °F - 5.0 °F 79% 30.22 in 10.0 mi Calm Calm - N/A   Overcast
4:44 AM 10.4 °F - 5.0 °F 79% 30.23 in 10.0 mi Calm Calm - N/A   Overcast
5:04 AM 10.4 °F - 5.0 °F 79% 30.24 in 10.0 mi Calm Calm - N/A   Overcast
5:24 AM 10.4 °F - 5.0 °F 79% 30.25 in 5.0 mi Calm Calm - N/A   Haze
5:43 AM 10.4 °F - 5.0 °F 79% 30.26 in 10.0 mi Calm Calm - N/A   Overcast
6:04 AM 10.4 °F - 5.0 °F 79% 30.26 in 10.0 mi Calm Calm - N/A   Mostly Cloudy
6:24 AM 8.6 °F - 3.2 °F 79% 30.26 in 10.0 mi Calm Calm - N/A   Mostly Cloudy
6:44 AM 10.4 °F - 5.0 °F 79% 30.28 in 10.0 mi Calm Calm - N/A   Overcast
7:04 AM 10.4 °F - 5.0 °F 79% 30.29 in 10.0 mi Calm Calm - N/A   Overcast
7:24 AM 8.6 °F 2.0 °F 1.4 °F 73% 30.29 in 10.0 mi East 3.5 mph - N/A   Scattered Clouds
7:44 AM 8.6 °F - 3.2 °F 79% 30.29 in 10.0 mi Calm Calm - N/A   Clear
8:04 AM 8.6 °F 2.0 °F 3.2 °F 79% 30.31 in 10.0 mi North 3.5 mph - N/A   Clear
8:24 AM 10.4 °F - 3.2 °F 73% 30.31 in 10.0 mi Calm Calm - N/A   Clear
8:44 AM 10.4 °F - 3.2 °F 73% 30.32 in 10.0 mi Calm Calm - N/A   Clear
9:04 AM 12.2 °F - 5.0 °F 73% 30.32 in 10.0 mi Calm Calm - N/A   Clear
9:23 AM 14.0 °F - 6.8 °F 73% 30.33 in 10.0 mi Calm Calm - N/A   Clear
9:44 AM 17.6 °F - 6.8 °F 63% 30.34 in 10.0 mi Calm Calm - N/A   Clear
10:04 AM 17.6 °F - 6.8 °F 63% 30.34 in 10.0 mi Calm Calm - N/A   Clear
10:24 AM 19.4 °F - 8.6 °F 63% 30.34 in 10.0 mi Calm Calm - N/A   Clear
10:44 AM 21.2 °F - 8.6 °F 58% 30.33 in 10.0 mi Calm Calm - N/A   Clear
11:04 AM 24.8 °F - 10.4 °F 54% 30.32 in 10.0 mi Calm Calm - N/A   Clear
11:24 AM 26.6 °F - 8.6 °F 47% 30.31 in 10.0 mi Calm Calm - N/A   Clear
11:44 AM 28.4 °F 24.6 °F 10.4 °F 47% 30.30 in 10.0 mi WNW 3.5 mph - N/A   Clear
12:04 PM 28.4 °F - 10.4 °F 47% 30.29 in 10.0 mi Calm Calm - N/A   Clear
12:44 PM 30.2 °F - 8.6 °F 40% 30.27 in 10.0 mi Calm Calm - N/A   Clear
1:04 PM 32.0 °F - 8.6 °F 38% 30.26 in 10.0 mi Calm Calm - N/A   Clear
1:24 PM 32.0 °F 28.7 °F 8.6 °F 38% 30.25 in 10.0 mi SW 3.5 mph - N/A   Clear
1:44 PM 33.8 °F - 8.6 °F 35% 30.24 in 10.0 mi Calm Calm - N/A   Clear
2:04 PM 32.0 °F - 8.6 °F 38% 30.24 in 10.0 mi Calm Calm - N/A   Clear
2:24 PM 33.8 °F - 10.4 °F 38% 30.24 in 10.0 mi Calm Calm - N/A   Clear
2:44 PM 33.8 °F - 10.4 °F 38% 30.24 in 10.0 mi Calm Calm - N/A   Clear
3:04 PM 33.8 °F - 10.4 °F 38% 30.25 in 10.0 mi Calm Calm - N/A   Clear
3:24 PM 33.8 °F - 10.4 °F 38% 30.25 in 10.0 mi Calm Calm - N/A   Clear
3:44 PM 32.0 °F 27.5 °F 8.6 °F 38% 30.26 in 10.0 mi NNW 4.6 mph - N/A   Clear
4:04 PM 30.2 °F - 8.6 °F 40% 30.26 in 10.0 mi Calm Calm - N/A   Clear
4:23 PM 30.2 °F - 10.4 °F 44% 30.27 in 10.0 mi Calm Calm - N/A   Scattered Clouds
4:44 PM 26.6 °F - 8.6 °F 47% 30.28 in 10.0 mi Calm Calm - N/A   Mostly Cloudy
5:04 PM 23.0 °F - 10.4 °F 59% 30.28 in 10.0 mi Calm Calm - N/A   Overcast
5:23 PM 26.6 °F - 10.4 °F 51% 30.28 in 5.0 mi Calm Calm - N/A   Haze
5:44 PM 23.0 °F - 10.4 °F 59% 30.30 in 10.0 mi Calm Calm - N/A   Overcast
6:04 PM 23.0 °F - 10.4 °F 59% 30.30 in 10.0 mi Calm Calm - N/A   Overcast
6:24 PM 23.0 °F - 12.2 °F 63% 30.30 in 10.0 mi Calm Calm - N/A   Overcast
6:44 PM 23.0 °F - 12.2 °F 63% 30.31 in 10.0 mi Calm Calm - N/A   Overcast
7:04 PM 23.0 °F - 12.2 °F 63% 30.32 in 10.0 mi Calm Calm - N/A   Overcast
7:24 PM 23.0 °F - 12.2 °F 63% 30.32 in 10.0 mi Calm Calm - N/A   Overcast
7:44 PM 23.0 °F - 12.2 °F 63% 30.32 in 10.0 mi Calm Calm - N/A   Overcast
8:04 PM 23.0 °F - 12.2 °F 63% 30.33 in 7.0 mi Calm Calm - N/A   Overcast
8:24 PM 23.0 °F - 12.2 °F 63% 30.33 in 10.0 mi Calm Calm - N/A   Overcast
8:44 PM 21.2 °F - 12.2 °F 68% 30.34 in 5.0 mi Calm Calm - N/A   Haze
9:04 PM 21.2 °F - 12.2 °F 68% 30.34 in 7.0 mi Calm Calm - N/A   Overcast
9:24 PM 19.4 °F - 12.2 °F 74% 30.34 in 4.0 mi Calm Calm - N/A   Haze
9:44 PM 19.4 °F - 12.2 °F 74% 30.34 in 10.0 mi Calm Calm - N/A   Mostly Cloudy
10:04 PM 17.6 °F - 8.6 °F 68% 30.35 in 10.0 mi Calm Calm - N/A   Scattered Clouds
10:24 PM 17.6 °F - 10.4 °F 73% 30.36 in 10.0 mi Calm Calm - N/A   Scattered Clouds
10:44 PM 14.0 °F - 8.6 °F 79% 30.36 in 7.0 mi Calm Calm - N/A   Scattered Clouds
11:04 PM 14.0 °F - 8.6 °F 79% 30.37 in 10.0 mi Calm Calm - N/A   Scattered Clouds
11:24 PM 14.0 °F 6.5 °F 8.6 °F 79% 30.37 in 10.0 mi North 4.6 mph - N/A   Scattered Clouds
11:44 PM 14.0 °F - 8.6 °F 79% 30.38 in 10.0 mi Calm Calm - N/A   Mostly Cloudy